This is the latest recevied weather packets stored in our database for station/object KB0BS-13. If no packets are shown the sender has not sent any weather packets the latest 10 day(s).
| Time | Temp. | Humidity | Pressure | Rain* | Wind** | Luminosity | Snow |
|---|---|---|---|---|---|---|---|
| 1777468055 | 2.78° C | 95% | 1016.8 hPa | 0 mm | - | 198 W/m² | - |
| 1777467447 | 2.22° C | 96% | 1016.8 hPa | 0 mm | - | 185 W/m² | - |
| 1777466840 | 1.67° C | 97% | 1016.8 hPa | 0 mm | - | 128 W/m² | - |
| 1777466234 | 1.67° C | 98% | 1016.9 hPa | 0 mm | - | 95 W/m² | - |
| 1777465930 | 1.67° C | 98% | 1016.9 hPa | 0 mm | - | 116 W/m² | - |
| 1777465627 | 1.67° C | 98% | 1016.9 hPa | 0 mm | - | 120 W/m² | - |
| 1777465323 | 1.11° C | 98% | 1016.7 hPa | 0 mm | - | 113 W/m² | - |
| 1777465021 | 1.11° C | 98% | 1016.7 hPa | 0 mm | - | 113 W/m² | - |
| 1777464716 | 1.11° C | 99% | 1016.6 hPa | 0 mm | - | 99 W/m² | - |
| 1777464414 | 0.56° C | 99% | 1016.7 hPa | 0 mm | - | 81 W/m² | - |
| 1777463809 | 0.56° C | 99% | 1016.9 hPa | 0 mm | - | 74 W/m² | - |
| 1777463200 | 0° C | 99% | 1016.5 hPa | 0 mm | - | 39 W/m² | - |
| 1777462593 | 0° C | 99% | 1016.3 hPa | 0 mm | - | 22 W/m² | - |
| 1777461984 | 0° C | 99% | 1016.3 hPa | 0 mm | - | 17 W/m² | - |
| 1777461681 | 0° C | 99% | 1016.5 hPa | 0 mm | - | 19 W/m² | - |
| 1777461078 | 0° C | 99% | 1016.6 hPa | 0 mm | - | 22 W/m² | - |
| 1777460165 | 0.56° C | 98% | 1016.6 hPa | 0 mm | - | 14 W/m² | - |
| 1777458955 | 0° C | 99% | 1016.2 hPa | 0 mm | - | 4 W/m² | - |
| 1777458043 | 0° C | 99% | 1016.2 hPa | 0 mm | - | 1 W/m² | - |
| 1777457740 | 0° C | 99% | 1016.3 hPa | 0 mm | - | 1 W/m² | - |
| 1777457440 | 0° C | 99% | 1016.3 hPa | 0 mm | - | 0 W/m² | - |
| 1777457135 | 0° C | 99% | 1016.5 hPa | 0 mm | - | 0 W/m² | - |
| 1777455923 | 0° C | 99% | 1016.1 hPa | 0 mm | - | 0 W/m² | - |
| 1777455620 | 0° C | 99% | 1016 hPa | 0 mm | - | 0 W/m² | - |
| 1777455316 | 0° C | 99% | 1016.1 hPa | 0 mm | - | 0 W/m² | - |
* Rain latest hour (hover to see other rain measurements)
** Current wind speed in m/s (hover to see current wind gust speed)